Weather Roundup
Issued by NWS

Home | Current Version | Previous Version | Text Only | Print | Product List | Glossary On
Versions: 1 2 3 4 5 6 7 8 9 10 11 12 13 14 15 16 17 18 19 20 21 22 23 24 25 26 27 28 29 30 31 32 33 34 35 36 37 38 39 40 41 42 43 44 45 46 47 48 49 50
000
NZUS93 KARX 281159
HRRWXR

CURRENT HOURLY OBSERVATIONS ACROSS
MUCH OF THE UPPER MISSISSIPPI VALLEY
NATIONAL WEATHER SERVICE LA CROSSE WI
600 AM CST WED JAN 28 2015


...SOUTHEAST MINNESOTA...


CITY           SKY/WX    TMP DP  RH WIND       PRES   REMARKS
ROCHESTER      CLOUDY    24  22  91 S21       30.05F FOG     WCI   9
ROCHESTER/MAYO CLOUDY    25  24  94 SE12G20   30.05F WCI  14
WINONA         CLOUDY    28  23  80 SE8       30.13F FOG     WCI  20
AUSTIN         CLOUDY    27  25  93 S13G18    30.03F FOG     WCI  16
ALBERT LEA     CLOUDY    28  28 100 SE14G20   30.00F FOG     WCI  17
DODGE CENTER   CLOUDY    27  27 100 S15       30.03S FOG     WCI  15
PRESTON        CLOUDY    23  22  96 S14       30.07S FOG     WCI  11
OWATONNA       CLOUDY    28  27  93 SE14      30.01F FOG     WCI  17
FARIBAULT      CLOUDY    28  27  93 SE13      30.01F FOG     WCI  18
$$

...ELSEWHERE IN MINNESOTA...


CITY           SKY/WX    TMP DP  RH WIND       PRES   REMARKS
MINNEAPOLIS    CLOUDY    29  25  85 SE15G24   30.03S WCI  18
INTNL FALLS    CLOUDY    26  23  88 SE8       29.92F WCI  18
DULUTH         CLOUDY    23  19  85 SE10      29.99F WCI  12
RED WING       CLOUDY    28  25  86 SE9       30.06F WCI  20
REDWOOD FALLS  CLOUDY    33  30  88 SE21      29.91F FOG     WCI  21
MANKATO        CLOUDY    30  27  86 SE18G24   29.97F WCI  18
WORTHINGTON    CLOUDY    30  27  86 S15G24    29.88F WCI  19
FAIRMONT       CLOUDY    30  27  86 S18G26    29.94F WCI  18
$$

...SOUTHWEST WISCONSIN...


CITY           SKY/WX    TMP DP  RH WIND       PRES   REMARKS
LA CROSSE      CLOUDY    27  22  81 S12       30.14F WCI  17
PRAIRIE DU CHI CLOUDY    27  22  82 SE6       30.17F WCI  21
BOSCOBEL       CLOUDY    28  22  78 VRB3      30.18F
LONE ROCK      NOT AVBL
PLATTEVILLE    CLOUDY    26  24  91 SE12      30.17F WCI  16
FORT MC COY    CLOUDY    26  23  87 SE10      30.16S FOG     WCI  16
CAMP DOUGLAS   CLOUDY    27  27 100 S10       30.16S WCI  17
VIROQUA        CLOUDY    24  24 100 S12       30.12F WCI  13
WIS DELLS      NOT AVBL
$$

...ELSEWHERE IN WISCONSIN...


CITY           SKY/WX    TMP DP  RH WIND       PRES   REMARKS
MILWAUKEE      PTCLDY    23  16  74 SW3       30.26R
MADISON        PTCLDY    22  17  81 S9        30.21F WCI  12
GREEN BAY      PTCLDY    18  14  84 S3        30.23S
EAU CLAIRE     CLOUDY    25  20  81 SE8       30.10F WCI  16
BLACK RVR FLS  CLOUDY    26  23  86 S3        30.14S FOG
MEDFORD        CLOUDY    21  21 100 S9        30.10S FOG     WCI  11
WAUSAU         CLOUDY    24  19  81 S10       30.13F WCI  14
WIS RAPIDS     CLOUDY    25  21  85 SE8       30.17S WCI  16
MARSHFIELD     CLOUDY    25  22  88 S13       30.13S FOG     WCI  14
RICE LAKE      CLOUDY    25  22  88 SE13      30.09S WCI  13
$$

...NORTHEAST IOWA...


CITY           SKY/WX    TMP DP  RH WIND       PRES   REMARKS
DECORAH        CLOUDY    23  23 100 SE10G18   30.10F FOG     WCI  12
MASON CITY     FOG       27  26  96 SE22      30.03F VSB 3/4 WCI  13
CHARLES CITY   CLOUDY    27  27 100 SE18      30.08S FOG     WCI  13
OELWEIN        CLOUDY    25  25 100 SE17G23   30.12F FOG     WCI  11
$$

...ELSEWHERE IN IOWA...


CITY           SKY/WX    TMP DP  RH WIND       PRES   REMARKS
DES MOINES     CLOUDY    31  27  85 SE12G21   30.03F FOG     WCI  22
IOWA CITY      CLOUDY    29  27  92 S10       30.18S FOG     WCI  20
FORT DODGE     CLOUDY    30  27  86 SE10      30.00S WCI  21
$$

...NORTHERN ILLINOIS...


CITY           SKY/WX    TMP DP  RH WIND       PRES   REMARKS
CHICAGO-OHARE  PTCLDY    20  16  84 S5        30.27R WCI  13
CHICAGO-MIDWAY CLEAR     24  17  74 S5        30.29R WCI  18
MOLINE         PTCLDY    28  22  78 SE7       30.20S WCI  21
ROCKFORD       CLOUDY    22  18  85 S5        30.27R WCI  16
PEORIA         PTCLDY    26  22  84 SE6       30.25S FOG     WCI  19
$$

NOTE: "FAIR" INDICATES FEW OR NO CLOUDS BELOW 12,000 FEET WITH NO
SIGNIFICANT WEATHER AND/OR OBSTRUCTIONS TO VISIBILITY. WIND
SPEEDS ARE IN MILES-PER-HOUR.



USA.gov is the U.S. government's official web portal to all federal, state and local government web resources and services.